User: anonymous   Login
Location: Dürabuch
(48.2640°N, 11.2185°E)
Time: 06:58:59
(UTC+00:00)
Language:

IRAS Rocket - Orbit

View from above orbital plane
View from above orbital plane
View from above satellite
View from above satellite

Ground track
Ground track

The orbit data is extracted from the following two-line orbital elements,

1 13778U 83004B   24205.83615569  .00000310  00000-0  20849-3 0  9997
2 13778 100.0585 165.0182 0021058   1.4275 358.6948 14.09383417132048
Epoch (UTC): 23 July 2024 20:04:03
Eccentricity: 0.0021058
inclination: 100.0585°
perigee height: 846 km
apogee height: 877 km
right ascension of ascending node: 165.0182°
argument of perigee: 1.4275°
revolutions per day: 14.09383417
mean anomaly at epoch: 358.6948°
orbit number at epoch: 13204

The dashed part of the orbit path shows where the satellite is in the earth's shadow,  

DLR